Newton, AL

4:06 AM CST on February 13, 2016 (GMT -0600)
Fort Rucker / Ozark

Weather History for KHEY - February, 2014

Change the Weather History Date:

Friday, February 7, 2014

  Actual Average (KOZR) Record (KOZR)
Temperature  
Mean Temperature 44 °F -  
Max Temperature 57 °F 59 °F 78 °F (1999)
Min Temperature 30 °F 39 °F 30 °F (2000)
Degree Days  
Heating Degree Days 22    
Moisture  
Dew Point 33 °F    
Average Humidity 71    
Maximum Humidity 92    
Minimum Humidity 44    
Precipitation  
Precipitation 0.00 in - - ()
Sea Level Pressure  
Sea Level Pressure 30.24 in    
Wind  
Wind Speed 5 mph (NNE)    
Max Wind Speed 10 mph    
Max Gust Speed -    
Visibility 8 miles    
Events      
Averages and records for this station are not official NWS values.
T = Trace of Precipitation, MM = Missing Value Source: NWS Daily Summary

Daily Weather History Graph

Daily Weather History Graph

Search for Another Location

Airport or City:

Trip Planner

Search our weather history database for the weather conditions in past years. The results will help you decide how hot, cold, wet, or windy it might be!

Date:

Astronomy

Feb. 07, 2014 Rise Set
Actual Time 6:30 AM CST 5:23 PM CST
Civil Twilight 6:05 AM CST 5:48 PM CST
Nautical Twilight 5:36 AM CST 6:16 PM CST
Astronomical Twilight 5:08 AM CST 6:45 PM CST
Moon 11:37 AM CST (2/7) 12:43 AM CST (2/7)
Length of Visible Light 11h 42m
Length of Day
10h 52m
First Quarter, 59% of the Moon is Illuminated
Feb 7
First Quarter
Feb 14
Full
Feb 22
Last Quarter
Mar 1
New
Mar 8
First Quarter

Hourly Weather History & Observations

Time (CST) Temp. Windchill Dew Point Humidity Pressure Visibility Wind Dir Wind Speed Gust Speed Precip Events Conditions
12:53 AM 32.0 °F 26.4 °F 30.0 °F 92% 30.25 in 4.0 mi NNW 5.8 mph - N/A   Clear
1:53 AM 32.0 °F - 30.0 °F 92% 30.25 in 5.0 mi Calm Calm - N/A   Clear
2:53 AM 32.0 °F 25.6 °F 28.9 °F 88% 30.25 in 5.0 mi North 6.9 mph - N/A   Clear
3:53 AM 32.0 °F 28.7 °F 28.9 °F 88% 30.27 in 6.0 mi NNE 3.5 mph - N/A   Clear
4:53 AM 30.9 °F 25.2 °F 28.9 °F 92% 30.26 in 6.0 mi North 5.8 mph - N/A   Clear
5:53 AM 30.9 °F 27.5 °F 28.0 °F 89% 30.28 in 6.0 mi North 3.5 mph - N/A   Clear
6:53 AM 30.9 °F 27.5 °F 28.0 °F 89% 30.30 in 4.0 mi North 3.5 mph - N/A   Clear
7:53 AM 35.1 °F 31.0 °F 30.0 °F 82% 30.31 in 6.0 mi North 4.6 mph - N/A   Haze
8:53 AM 39.0 °F 32.3 °F 30.9 °F 73% 30.30 in 8.0 mi NNE 10.4 mph - N/A   Clear
9:53 AM 44.1 °F 40.8 °F 33.1 °F 65% 30.31 in 9.0 mi North 5.8 mph - N/A   Clear
10:53 AM 48.0 °F - 33.1 °F 56% 30.30 in 10.0 mi NE 8.1 mph - N/A   Clear
11:53 AM 50.0 °F - 34.0 °F 54% 30.27 in 10.0 mi ENE 6.9 mph - N/A   Clear
12:53 PM 54.0 °F - 34.0 °F 47% 30.23 in 10.0 mi NE 8.1 mph - N/A   Clear
1:53 PM 55.9 °F - 35.1 °F 45% 30.20 in 10.0 mi NNE 9.2 mph - N/A   Clear
2:53 PM 57.0 °F - 35.1 °F 44% 30.17 in 10.0 mi North 6.9 mph - N/A   Clear
3:53 PM 55.9 °F - 35.1 °F 45% 30.18 in 10.0 mi NE 4.6 mph - N/A   Clear
4:53 PM 55.0 °F - 35.1 °F 47% 30.19 in 10.0 mi ENE 5.8 mph - N/A   Clear
5:53 PM 53.1 °F - 36.0 °F 52% 30.21 in 10.0 mi East 3.5 mph - N/A   Clear
6:53 PM 45.0 °F - 39.0 °F 80% 30.22 in 10.0 mi Calm Calm - N/A   Clear
7:53 PM 43.0 °F - 37.9 °F 82% 30.21 in 10.0 mi Calm Calm - N/A   Clear
8:53 PM 42.1 °F 39.2 °F 37.0 °F 82% 30.19 in 10.0 mi NNW 4.6 mph - N/A   Clear
9:53 PM 44.1 °F - 37.9 °F 79% 30.20 in 10.0 mi Calm Calm - N/A   Overcast
10:53 PM 45.0 °F 42.6 °F 36.0 °F 71% 30.20 in 10.0 mi North 4.6 mph - N/A   Mostly Cloudy
11:53 PM 45.0 °F 42.6 °F 36.0 °F 71% 30.17 in 10.0 mi North 4.6 mph - N/A   Overcast